sat.trackr.live / text

‹ back to catalog

STARLINK-11081 [DTC]

NORAD 60405 · 2024-141H

PAYLOAD ACTIVE UNKNOWN

§ Identity

Operator
Country
US
Launch date
2024-08-10
Launch site
AFETR
Launch vehicle
Mass (kg)
RCS (m²)

Purposes: comms

External: N2YO · Heavens-Above · Gunter

§ Orbital elements

Epoch: 2026-05-25T04:22:25.479840Z

Period
91.74 min
Inclination
53.1586°
Eccentricity
0.0001049
Mean motion
15.69716787 rev/d
Perigee alt
359.0 km
Apogee alt
360.4 km
Semi-major
6,737.8 km
B*
-4.5583e-7
RAAN
69.4173°
Arg perigee
54.9199°
Mean anomaly
305.1917°
Rev number
10,370

§ Raw data

STARLINK-11081 [DTC]1 60405U 24141H   26145.18223935 -.00000644  00000+0 -45583-6 0  99942 60405  53.1586  69.4173 0001049  54.9199 305.1917 15.69716787103700

JSON: /api/v1/satellites/60405 · /tle

For live sub-satellite position, see the globe view (requires WebGL).

§ Visibility from observer

Set your observer location to see the next 7 days of passes ≥ 10°. The values pass through the URL so the page stays shareable.

No JS? Fill the form by hand. The geolocation button needs JavaScript.